Observations for Trim Market St
| Time | AQI | Temp °C | Hum % | Pres Pa | CO μg/m³ | H₂S μg/m³ | NO μg/m³ | NO₂ μg/m³ | O₃ μg/m³ | SO₂ μg/m³ | PM1 μg/m³ | PM2.5 μg/m³ | PM10 μg/m³ |
|---|---|---|---|---|---|---|---|---|---|---|---|---|---|
| Monday 13 July 2026 | |||||||||||||
| 10:08 | 1 | 31.2 | 36 | 65,841 | 0 | 0 | 0 | 0 | 33.84 | 0 | 1.43 | 4.11 | 4.21 |
| 10:07 | 1 | 31.2 | 36 | 65,833 | 0 | 0 | 0 | 0 | 24.65 | 0 | 2.14 | 4.65 | 5.12 |
| 10:06 | 1 | 31.2 | 36 | 65,851 | 0 | 0 | 0 | 0 | 27.77 | 0 | 1.43 | 4.65 | 5.12 |
| 10:05 | 1 | 31.2 | 36 | 65,841 | 0 | 0 | 0 | 0 | 30.24 | 0 | 2.14 | 5.19 | 5.7 |
| 10:03 | 1 | 31.2 | 36 | 65,827 | 0 | 0 | 0 | 0 | 29.38 | 0 | 0.71 | 4.11 | 4.52 |
| 10:02 | 1 | 31.1 | 36 | 65,815 | 0 | 0 | 0 | 0 | 22.09 | 0 | 1.43 | 4.1 | 4.51 |
| 10:01 | 1 | 31.1 | 37 | 65,797 | 0 | 0 | 0 | 0 | 24.96 | 0 | 1.43 | 4.09 | 5.05 |
| 10:00 | 1 | 31.1 | 37 | 65,738 | 0 | 0 | 0 | 0 | 24.16 | 0 | 1.43 | 5.15 | 5.67 |
| 09:59 | 1 | 31.1 | 37 | 65,723 | 0 | 0 | 0 | 0 | 12.98 | 0 | 2.14 | 4.6 | 5.07 |
| 09:58 | 1 | 31.1 | 37 | 65,698 | 0 | 0 | 0 | 0 | 24.14 | 0 | 0.71 | 4.06 | 5.06 |
| 09:57 | 1 | 31 | 38 | 65,670 | 0 | 0 | 0 | 0 | 42.09 | 0 | 2.14 | 4.59 | 5.07 |
| 09:56 | 1 | 31 | 37 | 65,670 | 0 | 0 | 0 | 0 | 31.44 | 0 | 1.43 | 5.13 | 6.7 |
| 09:55 | 1 | 30.9 | 37 | 65,672 | 0 | 0 | 0 | 0 | 24.19 | 0 | 1.43 | 4.59 | 5.05 |
| 09:54 | 1 | 30.9 | 38 | 65,672 | 0 | 0 | 0 | 0 | 27.06 | 0 | 2.14 | 5.12 | 6.71 |
| 09:53 | 1 | 30.8 | 38 | 65,670 | 0 | 0 | 0 | 0 | 29.32 | 0 | 0.71 | 4.04 | 4.45 |
| 09:52 | 1 | 30.8 | 38 | 65,666 | 0 | 0 | 0 | 0 | 22.66 | 0 | 2.14 | 5.11 | 5.62 |
| 09:51 | 1 | 30.7 | 38 | 65,635 | 0 | 0 | 0 | 0 | 36.48 | 0 | 1.43 | 4.04 | 4.44 |
| 09:50 | 1 | 30.7 | 38 | 65,596 | 0 | 0 | 0 | 0 | 19.27 | 0 | 2.14 | 5.63 | 5.89 |
| 09:48 | 1 | 30.6 | 38 | 65,570 | 0 | 0 | 0 | 0 | 33.05 | 0 | 2.14 | 4.55 | 5.01 |
| 09:46 | 1 | 30.4 | 38 | 65,529 | 0 | 0 | 0 | 0 | 30.24 | 0 | 1.43 | 4.55 | 5.01 |